Tracking 29967 objects as of 5-Dec-2024
HD Live streaming from Space Station
objects crossing your sky now

INSAT 2A

Track INSAT 2A now!
INSAT 2A is classified as:


NORAD ID: 22027
Int'l Code: 1992-041A
Perigee: 35,766.3 km
Apogee: 35,853.8 km
Inclination: 14.6 °
Period: 1,436.9 minutes
Semi major axis: 42181 km
RCS: 1.9952 m2 (large)
Launch date: July 9, 1992
Source: India (IND)
Launch site: FRENCH GUIANA (FRGUI)
Your satellite tracking list
Your tracking list is empty




NASA's NSSDC Master Catalog

Two Line Element Set (TLE):
1 22027U 92041A   24339.87064999 -.00000207  00000-0  00000-0 0  9992
2 22027  14.6158 356.1015 0010374 256.3713 109.3855  1.00213702118459
Source of the keplerian elements: AFSPC